Location: State Camp
(41.2367°N, 77.7828°W)
Time: 07:38:13
(UTC-04:00)

HST - Visible Passes

Search period start: 02 September 2014 00:00
Search period end: 12 September 2014 00:00
Orbit: 547 x 552 km, 28.5° (Epoch: 01 September)

Date Brightness Start Highest point End Pass type
(mag) Time Alt. Az. Time Alt. Az. Time Alt. Az.
07 Sep 3.1 21:14:22 10° SSW 21:15:16 12° S 21:15:16 12° S visible
08 Sep 2.9 21:07:03 10° SSW 21:08:46 14° S 21:08:46 14° S visible
09 Sep 2.9 20:59:50 10° SSW 21:02:03 14° S 21:02:11 14° S visible
10 Sep 2.9 20:52:44 10° SW 20:54:56 14° S 20:55:35 14° S visible
11 Sep 2.9 20:45:44 10° SW 20:47:50 14° S 20:48:57 12° SSE visible
